Regional Weather Roundup
Issued by NWS Kansas City/Pleasant Hill, MO

Home | Current Version | Previous Version | Graphics & Text | Print | Product List | Glossary Off
Versions: 1 2 3 4 5 6 7 8 9 10 11 12 13 14 15 16 17 18 19 20 21 22 23 24 25 26 27 28 29 30 31 32 33 34 35 36 37 38 39 40 41 42 43 44 45 46 47 48 49 50

211
ASUS43 KEAX 230810
RWREAX

WEATHER ROUNDUP FOR EASTERN KANSAS AND NORTHWEST MISSOURI
NATIONAL WEATHER SERVICE KANSAS CITY/PLEASANT HILL MO
300 AM CDT WED AUG 23 2017

KSZ040-057-103>105-MOZ028-029-037-043-230900-
...KANSAS CITY METROPOLITAN AREA...

CITY           SKY/WX    TMP DP  RH WIND       PRES   REMARKS
K.C. INTL      CLEAR     59  54  83 NE3       30.17R
K.C. DOWNTOWN  CLEAR     62  56  80 CALM      30.16R
LEES SUMMIT    CLEAR     61  55  81 MISG      30.17R
OLATHE - IXD   CLEAR     57  54  89 N5        30.17R
OLATHE - OJC   CLEAR     60  54  80 NE6       30.16S
LAWRENCE       CLEAR     57  56  96 CALM      30.16S

$$

MOZ001>008-011>017-020>025-030>033-038>040-044>046-053-054-230900-
...NORTHERN AND CENTRAL MISSOURI...

CITY           SKY/WX    TMP DP  RH WIND       PRES   REMARKS
ST. JOSEPH     CLEAR     52  52 100 CALM      30.17S
MOSBY          SUNNY     55  55 100 CALM      30.17S
WARRENSBURG    CLEAR     55  54  94 CALM      30.15S
WHITEMAN AFB   PTCLDY    56  56 100 NE3       30.14R
CLINTON        CLEAR     57  55  94 NE6       30.14S
SEDALIA        CLEAR     59  58  96 N3        30.16R
WARSAW         NOT AVBL
CHILLICOTHE      N/A     55  55 100 CALM      30.17R
KIRKSVILLE     CLEAR     53  32  44 NW5       30.15S

$$

MOZ041-047>049-056>058-063>065-088>090-097-230900-
...EASTERN AND SOUTHERN MISSOURI...

CITY           SKY/WX    TMP DP  RH WIND       PRES   REMARKS
ST. LOUIS INTL CLEAR     63  57  81 N3        30.09S
SPIRIT OF STL  CLEAR     59  58  96 SW3       30.09R
COLUMBIA       CLEAR     58  54  86 CALM      30.13R
JEFFERSON CITY CLEAR     60  57  89 NW5       30.12R
ROLLA          CLEAR     60  56  86 N5        30.13R
OSAGE BEACH    CLOUDY    62  57  83 NE5       30.13S
SPRINGFIELD    PTCLDY    65  63  93 NE6       30.12R
BRANSON        CLOUDY    70  66  88 CALM      30.11S
JOPLIN         MOCLDY    67  64  90 NE5       30.12S
WEST PLAINS    PTCLDY    67  62  84 NE7       30.10S

$$

IAZ060-094-KSZ022-034>040-054-083-096-NEZ052-066-093-230900-
...KANSAS...SOUTHEAST NEBRASKA AND IOWA...

CITY           SKY/WX    TMP DP  RH WIND       PRES   REMARKS
TOPEKA         CLEAR     57  57 100 CALM      30.17R
MANHATTAN      CLEAR     55  53  93 CALM      30.18R
EMPORIA        CLEAR     58  54  86 NE6       30.16F
CHANUTE        PTCLDY    63  57  81 N7        30.14F
WICHITA        PTCLDY    65  56  72 E7        30.16S
OMAHA          CLEAR     58  53  84 CALM      30.17S
LINCOLN        CLEAR     56  53  90 CALM      30.19S
FALLS CITY     CLEAR     56  53  90 CALM      30.17S
LAMONI         CLEAR     55  52  89 NW5       30.16R
DES MOINES     CLEAR     58  55  90 CALM      30.14R

$$





USA.gov is the U.S. government's official web portal to all federal, state and local government web resources and services.